Weather History for Frederick, OK

Change the Weather History Date:

Thursday, July 25, 2013

  Actual Average (KLTS) Record (KLTS)
Temperature  
Mean Temperature 80 °F -  
Max Temperature 87 °F 96 °F 109 °F (2011)
Min Temperature 75 °F 71 °F 66 °F (2007)
Cooling Degree Days 16    
Growing Degree Days 30 (Base 50)    
Moisture  
Dew Point 71 °F    
Average Humidity 76    
Maximum Humidity 89    
Minimum Humidity 61    
Precipitation  
Precipitation 0.10 in - - ()
Sea Level Pressure  
Sea Level Pressure 29.99 in    
Wind  
Wind Speed 9 mph (East)    
Max Wind Speed 17 mph    
Max Gust Speed -    
Visibility 10 miles    
Events Rain , Thunderstorm    
Averages and records for this station are not official NWS values.
T = Trace of Precipitation, MM = Missing Value Source: NWS Daily Summary

Daily Weather History Graph

Daily Weather History Graph

Search for Another Location

Airport:

Trip Planner

Search our weather history database for the weather conditions in past years. The results will help you decide how hot, cold, wet, or windy it might be!

Date:

Astronomy

Jul. 25, 2013 Rise Set
Actual Time 6:41 AM CDT 8:42 PM CDT
Civil Twilight 6:13 AM CDT 9:10 PM CDT
Nautical Twilight 5:39 AM CDT 9:44 PM CDT
Astronomical Twilight 5:03 AM CDT 10:20 PM CDT
Moon 10:37 PM CDT (7/25) 10:01 AM CDT (7/25)
Length of Visible Light 14h 56m
Length of Day
14h 00m
Waning Gibbous, 88% of the Moon is Illuminated
Jul 25
Waning Gibbous
Jul 29
Last Quarter
Aug 6
New
Aug 14
First Quarter
Aug 20
Full

Hourly Weather History & Observations

Time (CDT) Temp. Heat Index Dew Point Humidity Pressure Visibility Wind Dir Wind Speed Gust Speed Precip Events Conditions
12:53 AM 80.1 °F 83.2 °F 70.0 °F 71% 29.94 in 10.0 mi ESE 11.5 mph - N/A   Clear
1:53 AM 79.0 °F - 70.0 °F 74% 29.93 in 10.0 mi ESE 10.4 mph - N/A   Mostly Cloudy
2:53 AM 78.1 °F - 70.0 °F 76% 29.94 in 10.0 mi East 9.2 mph - N/A   Overcast
3:53 AM 77.0 °F - 70.0 °F 79% 29.94 in 10.0 mi East 6.9 mph - N/A   Partly Cloudy
4:53 AM 75.9 °F - 70.0 °F 82% 29.95 in 10.0 mi East 6.9 mph - N/A   Partly Cloudy
5:53 AM 75.9 °F - 70.0 °F 82% 29.96 in 10.0 mi ENE 6.9 mph - N/A   Mostly Cloudy
6:53 AM 75.9 °F - 70.0 °F 82% 30.00 in 10.0 mi North 10.4 mph - N/A   Mostly Cloudy
7:53 AM 77.0 °F - 69.1 °F 76% 29.99 in 10.0 mi NE 11.5 mph - N/A   Overcast
8:53 AM 79.0 °F - 69.1 °F 72% 30.02 in 10.0 mi NE 9.2 mph - N/A   Mostly Cloudy
9:37 AM 78.8 °F - 69.8 °F 74% 30.08 in 10.0 mi Calm Calm - N/A Thunderstorm Partly Cloudy
9:53 AM 78.1 °F - 69.1 °F 74% 30.03 in 10.0 mi South 3.5 mph - N/A Thunderstorm Thunderstorm
10:13 AM 77.0 °F - 69.8 °F 78% 30.07 in 10.0 mi Calm Calm - 0.00 in Rain Light Rain
10:35 AM 75.2 °F - 71.6 °F 89% 30.04 in 6.0 mi SE 12.7 mph - 0.07 in Rain , Thunderstorm Rain
10:50 AM 75.2 °F - 71.6 °F 89% 30.06 in 10.0 mi SE 17.3 mph - 0.08 in Rain Light Rain
10:53 AM 75.0 °F - 71.1 °F 87% 30.01 in 10.0 mi SSE 16.1 mph - 0.08 in Rain Light Rain
11:53 AM 75.9 °F - 71.1 °F 85% 30.02 in 10.0 mi ESE 3.5 mph - 0.01 in Rain Light Rain
12:53 PM 78.1 °F - 71.1 °F 79% 30.03 in 10.0 mi East 5.8 mph - 0.00 in   Mostly Cloudy
1:03 PM 78.8 °F - 71.6 °F 78% 30.09 in 10.0 mi East 6.9 mph - N/A   Mostly Cloudy
1:18 PM 78.8 °F - 69.8 °F 74% 30.10 in 10.0 mi NNE 3.5 mph - N/A   Mostly Cloudy
1:53 PM 78.1 °F - 71.1 °F 79% 30.02 in 10.0 mi East 9.2 mph - 0.01 in   Overcast
2:42 PM 78.8 °F - 71.6 °F 78% 30.04 in 10.0 mi East 11.5 mph - N/A   Scattered Clouds
2:53 PM 79.0 °F - 71.1 °F 77% 29.99 in 10.0 mi ENE 10.4 mph - N/A   Mostly Cloudy
3:53 PM 82.9 °F 87.0 °F 70.0 °F 65% 29.98 in 10.0 mi East 13.8 mph - N/A   Clear
4:53 PM 84.9 °F 90.1 °F 71.1 °F 63% 29.95 in 10.0 mi East 15.0 mph - N/A   Clear
5:53 PM 86.0 °F 91.5 °F 71.1 °F 61% 29.93 in 10.0 mi ESE 17.3 mph - N/A   Clear
6:53 PM 86.0 °F 91.5 °F 71.1 °F 61% 29.92 in 10.0 mi SE 17.3 mph - N/A   Clear
7:53 PM 84.9 °F 90.1 °F 71.1 °F 63% 29.92 in 10.0 mi SE 10.4 mph - N/A   Clear
8:53 PM 82.9 °F 88.0 °F 72.0 °F 69% 29.92 in 10.0 mi ESE 6.9 mph - N/A   Clear
9:53 PM 81.0 °F 85.8 °F 73.0 °F 77% 29.91 in 10.0 mi East 8.1 mph - N/A   Clear
10:53 PM 80.1 °F 84.2 °F 73.0 °F 79% 29.92 in 10.0 mi East 8.1 mph - N/A   Clear
11:53 PM 80.1 °F 84.2 °F 73.0 °F 79% 29.91 in 10.0 mi South 6.9 mph - N/A   Clear